Year,Month,Day,Hour,Minute,Value (Times are PST for temperature in C)
2019,01,28,00,00,4.80
2019,01,28,00,01,4.80
2019,01,28,00,02,4.80
2019,01,28,00,03,4.80
2019,01,28,00,04,4.80
2019,01,28,00,05,4.80
2019,01,28,00,06,4.80
2019,01,28,00,07,4.80
2019,01,28,00,08,4.80
2019,01,28,00,09,4.80
2019,01,28,00,10,4.80
2019,01,28,00,11,4.80
2019,01,28,00,12,4.80
2019,01,28,00,13,4.80
2019,01,28,00,14,4.80
2019,01,28,00,15,4.80
2019,01,28,00,16,4.80
2019,01,28,00,17,4.80
2019,01,28,00,18,4.80
2019,01,28,00,19,4.80
2019,01,28,00,20,4.80
2019,01,28,00,21,4.80
2019,01,28,00,22,4.80
2019,01,28,00,23,4.80
2019,01,28,00,24,4.80
2019,01,28,00,25,4.80
2019,01,28,00,26,4.80
2019,01,28,00,27,4.80
2019,01,28,00,28,4.80
2019,01,28,00,29,4.80
2019,01,28,00,30,4.80
2019,01,28,00,31,4.80
2019,01,28,00,32,4.80
2019,01,28,00,33,4.80
2019,01,28,00,34,4.80
2019,01,28,00,35,4.80
2019,01,28,00,36,4.80
2019,01,28,00,37,4.80
2019,01,28,00,38,4.80
2019,01,28,00,39,4.80
2019,01,28,00,40,4.80
2019,01,28,00,41,4.80
2019,01,28,00,42,4.80
2019,01,28,00,43,4.80
2019,01,28,00,45,4.80
2019,01,28,00,46,4.80
2019,01,28,00,47,4.80
2019,01,28,00,48,4.80
2019,01,28,00,49,4.80
2019,01,28,00,50,4.80
2019,01,28,00,51,4.80
2019,01,28,00,52,4.80
2019,01,28,00,53,4.80
2019,01,28,00,54,4.80
2019,01,28,00,55,4.80
2019,01,28,00,56,4.80
2019,01,28,00,57,4.80
2019,01,28,00,58,4.80
2019,01,28,00,59,4.80
2019,01,28,01,00,4.80
2019,01,28,01,02,4.80
2019,01,28,01,04,4.80
2019,01,28,01,05,4.80
2019,01,28,01,06,4.80
2019,01,28,01,08,4.80
2019,01,28,01,09,4.70
2019,01,28,01,10,4.70
2019,01,28,01,11,4.70
2019,01,28,01,12,4.70
2019,01,28,01,13,4.70
2019,01,28,01,14,4.70
2019,01,28,01,15,4.70
2019,01,28,01,16,4.70
2019,01,28,01,17,4.70
2019,01,28,01,18,4.70
2019,01,28,01,19,4.70
2019,01,28,01,20,4.70
2019,01,28,01,21,4.70
2019,01,28,01,22,4.70
2019,01,28,01,23,4.70
2019,01,28,01,24,4.70
2019,01,28,01,25,4.70
2019,01,28,01,26,4.70
2019,01,28,01,27,4.70
2019,01,28,01,28,4.70
2019,01,28,01,29,4.70
2019,01,28,01,30,4.60
2019,01,28,01,31,4.70
2019,01,28,01,32,4.70
2019,01,28,01,33,4.70
2019,01,28,01,34,4.70
2019,01,28,01,35,4.70
2019,01,28,01,36,4.70
2019,01,28,01,37,4.70
2019,01,28,01,38,4.70
2019,01,28,01,39,4.70
2019,01,28,01,41,4.70
2019,01,28,01,42,4.70
2019,01,28,01,43,4.70
2019,01,28,01,44,4.70
2019,01,28,01,45,4.70
2019,01,28,01,46,4.70
2019,01,28,01,47,4.70
2019,01,28,01,48,4.70
2019,01,28,01,49,4.70
2019,01,28,01,50,4.70
2019,01,28,01,51,4.70
2019,01,28,01,52,4.70
2019,01,28,01,53,4.70
2019,01,28,01,54,4.70
2019,01,28,01,55,4.70
2019,01,28,01,56,4.70
2019,01,28,01,57,4.70
2019,01,28,01,58,4.70
2019,01,28,01,59,4.70
2019,01,28,02,00,4.70
2019,01,28,02,01,4.70
2019,01,28,02,02,4.70
2019,01,28,02,04,4.70
2019,01,28,02,05,4.70
2019,01,28,02,06,4.70
2019,01,28,02,07,4.70
2019,01,28,02,08,4.70
2019,01,28,02,09,4.70
2019,01,28,02,10,4.70
2019,01,28,02,11,4.70
2019,01,28,02,12,4.70
2019,01,28,02,14,4.70
2019,01,28,02,15,4.70
2019,01,28,02,16,4.70
2019,01,28,02,17,4.70
2019,01,28,02,18,4.70
2019,01,28,02,19,4.70
2019,01,28,02,20,4.70
2019,01,28,02,21,4.70
2019,01,28,02,22,4.70
2019,01,28,02,23,4.70
2019,01,28,02,24,4.70
2019,01,28,02,25,4.70
2019,01,28,02,26,4.70
2019,01,28,02,27,4.70
2019,01,28,02,28,4.60
2019,01,28,02,29,4.60
2019,01,28,02,30,4.60
2019,01,28,02,31,4.60
2019,01,28,02,32,4.60
2019,01,28,02,33,4.60
2019,01,28,02,34,4.60
2019,01,28,02,35,4.60
2019,01,28,02,36,4.50
2019,01,28,02,37,4.50
2019,01,28,02,38,4.50
2019,01,28,02,39,4.50
2019,01,28,02,40,4.50
2019,01,28,02,41,4.50
2019,01,28,02,42,4.50
2019,01,28,02,43,4.50
2019,01,28,02,44,4.50
2019,01,28,02,45,4.50
2019,01,28,02,46,4.50
2019,01,28,02,47,4.50
2019,01,28,02,48,4.50
2019,01,28,02,49,4.40
2019,01,28,02,50,4.40
2019,01,28,02,51,4.40
2019,01,28,02,52,4.40
2019,01,28,02,53,4.40
2019,01,28,02,54,4.40
2019,01,28,02,55,4.40
2019,01,28,02,56,4.40
2019,01,28,02,57,4.40
2019,01,28,02,58,4.40
2019,01,28,02,59,4.40
2019,01,28,03,00,4.40
2019,01,28,03,01,4.40
2019,01,28,03,02,4.40
2019,01,28,03,03,4.40
2019,01,28,03,04,4.40
2019,01,28,03,05,4.40
2019,01,28,03,06,4.40
2019,01,28,03,07,4.40
2019,01,28,03,08,4.40
2019,01,28,03,09,4.40
2019,01,28,03,10,4.40
2019,01,28,03,11,4.40
2019,01,28,03,12,4.40
2019,01,28,03,13,4.40
2019,01,28,03,14,4.40
2019,01,28,03,15,4.40
2019,01,28,03,16,4.40
2019,01,28,03,17,4.40
2019,01,28,03,18,4.40
2019,01,28,03,19,4.40
2019,01,28,03,20,4.40
2019,01,28,03,21,4.40
2019,01,28,03,22,4.40
2019,01,28,03,23,4.40
2019,01,28,03,24,4.40
2019,01,28,03,25,4.40
2019,01,28,03,26,4.40
2019,01,28,03,27,4.40
2019,01,28,03,28,4.40
2019,01,28,03,29,4.40
2019,01,28,03,30,4.30
2019,01,28,03,31,4.30
2019,01,28,03,32,4.30
2019,01,28,03,33,4.30
2019,01,28,03,34,4.30
2019,01,28,03,35,4.30
2019,01,28,03,36,4.30
2019,01,28,03,37,4.30
2019,01,28,03,38,4.30
2019,01,28,03,39,4.30
2019,01,28,03,40,4.30
2019,01,28,03,41,4.30
2019,01,28,03,42,4.30
2019,01,28,03,43,4.30
2019,01,28,03,44,4.30
2019,01,28,03,45,4.30
2019,01,28,03,46,4.30
2019,01,28,03,47,4.30
2019,01,28,03,48,4.40
2019,01,28,03,49,4.40
2019,01,28,03,50,4.30
2019,01,28,03,51,4.40
2019,01,28,03,52,4.40
2019,01,28,03,53,4.30
2019,01,28,03,54,4.30
2019,01,28,03,55,4.30
2019,01,28,03,56,4.30
2019,01,28,03,57,4.30
2019,01,28,03,58,4.30
2019,01,28,03,59,4.30
2019,01,28,04,00,4.30
2019,01,28,04,01,4.30
2019,01,28,04,02,4.30
2019,01,28,04,03,4.30
2019,01,28,04,04,4.30
2019,01,28,04,05,4.30
2019,01,28,04,06,4.30
2019,01,28,04,07,4.30
2019,01,28,04,08,4.30
2019,01,28,04,09,4.30
2019,01,28,04,10,4.30
2019,01,28,04,11,4.30
2019,01,28,04,12,4.30
2019,01,28,04,13,4.30
2019,01,28,04,14,4.30
2019,01,28,04,15,4.20
2019,01,28,04,16,4.20
2019,01,28,04,17,4.20
2019,01,28,04,18,4.20
2019,01,28,04,19,4.20
2019,01,28,04,20,4.20
2019,01,28,04,21,4.20
2019,01,28,04,22,4.20
2019,01,28,04,23,4.20
2019,01,28,04,24,4.20
2019,01,28,04,25,4.20
2019,01,28,04,26,4.10
2019,01,28,04,27,4.10
2019,01,28,04,28,4.10
2019,01,28,04,29,4.10
2019,01,28,04,30,4.10
2019,01,28,04,31,4.10
2019,01,28,04,32,4.10
2019,01,28,04,33,4.10
2019,01,28,04,34,4.10
2019,01,28,04,35,4.10
2019,01,28,04,36,4.10
2019,01,28,04,37,4.00
2019,01,28,04,38,4.00
2019,01,28,04,39,4.00
2019,01,28,04,40,3.90
2019,01,28,04,41,3.90
2019,01,28,04,42,4.00
2019,01,28,04,43,3.90
2019,01,28,04,44,3.90
2019,01,28,04,45,3.90
2019,01,28,04,46,3.90
2019,01,28,04,47,3.90
2019,01,28,04,48,3.90
2019,01,28,04,49,3.90
2019,01,28,04,50,3.90
2019,01,28,04,51,3.90
2019,01,28,04,52,3.80
2019,01,28,04,53,3.80
2019,01,28,04,54,3.80
2019,01,28,04,55,3.80
2019,01,28,04,56,3.80
2019,01,28,04,57,3.80
2019,01,28,04,58,3.80
2019,01,28,04,59,3.80
2019,01,28,05,00,3.80
2019,01,28,05,01,3.80
2019,01,28,05,02,3.80
2019,01,28,05,03,3.80
2019,01,28,05,04,3.80
2019,01,28,05,05,3.80
2019,01,28,05,06,3.80
2019,01,28,05,07,3.80
2019,01,28,05,08,3.80
2019,01,28,05,09,3.80
2019,01,28,05,10,3.80
2019,01,28,05,11,3.80
2019,01,28,05,12,3.70
2019,01,28,05,13,3.70
2019,01,28,05,14,3.70
2019,01,28,05,15,3.70
2019,01,28,05,16,3.70
2019,01,28,05,17,3.70
2019,01,28,05,18,3.60
2019,01,28,05,19,3.60
2019,01,28,05,20,3.60
2019,01,28,05,21,3.60
2019,01,28,05,22,3.50
2019,01,28,05,23,3.50
2019,01,28,05,24,3.40
2019,01,28,05,25,3.40
2019,01,28,05,26,3.40
2019,01,28,05,27,3.40
2019,01,28,05,28,3.40
2019,01,28,05,29,3.30
2019,01,28,05,30,3.30
2019,01,28,05,31,3.30
2019,01,28,05,32,3.20
2019,01,28,05,33,3.20
2019,01,28,05,34,3.10
2019,01,28,05,35,3.00
2019,01,28,05,36,3.00
2019,01,28,05,37,2.90
2019,01,28,05,38,2.90
2019,01,28,05,39,2.80
2019,01,28,05,40,2.80
2019,01,28,05,41,2.80
2019,01,28,05,42,2.80
2019,01,28,05,43,2.80
2019,01,28,05,44,2.80
2019,01,28,05,45,2.70
2019,01,28,05,46,2.70
2019,01,28,05,47,2.70
2019,01,28,05,48,2.70
2019,01,28,05,49,2.70
2019,01,28,05,50,2.70
2019,01,28,05,51,2.70
2019,01,28,05,52,2.70
2019,01,28,05,53,2.70
2019,01,28,05,54,2.70
2019,01,28,05,55,2.70
2019,01,28,05,56,2.70
2019,01,28,05,57,2.70
2019,01,28,05,58,2.70
2019,01,28,05,59,2.70
2019,01,28,06,00,2.70
2019,01,28,06,01,2.70
2019,01,28,06,02,2.70
2019,01,28,06,03,2.80
2019,01,28,06,04,2.80
2019,01,28,06,05,2.80
2019,01,28,06,06,2.80
2019,01,28,06,07,2.80
2019,01,28,06,08,2.80
2019,01,28,06,09,2.80
2019,01,28,06,10,2.80
2019,01,28,06,11,2.80
2019,01,28,06,12,2.80
2019,01,28,06,13,2.80
2019,01,28,06,14,2.80
2019,01,28,06,15,2.80
2019,01,28,06,16,2.80
2019,01,28,06,17,2.80
2019,01,28,06,18,2.80
2019,01,28,06,19,2.80
2019,01,28,06,20,2.80
2019,01,28,06,21,2.80
2019,01,28,06,22,2.80
2019,01,28,06,23,2.80
2019,01,28,06,24,2.80
2019,01,28,06,25,2.80
2019,01,28,06,26,2.80
2019,01,28,06,27,2.80
2019,01,28,06,28,2.80
2019,01,28,06,29,2.80
2019,01,28,06,30,2.80
2019,01,28,06,31,2.80
2019,01,28,06,32,2.80
2019,01,28,06,33,2.80
2019,01,28,06,34,2.80
2019,01,28,06,35,2.80
2019,01,28,06,36,2.80
2019,01,28,06,37,2.80
2019,01,28,06,38,2.80
2019,01,28,06,39,2.90
2019,01,28,06,40,2.80
2019,01,28,06,41,2.80
2019,01,28,06,42,2.80
2019,01,28,06,43,2.80
2019,01,28,06,44,2.80
2019,01,28,06,45,2.80
2019,01,28,06,46,2.80
2019,01,28,06,47,2.80
2019,01,28,06,48,2.80
2019,01,28,06,49,2.80
2019,01,28,06,50,2.80
2019,01,28,06,51,2.80
2019,01,28,06,52,2.80
2019,01,28,06,53,2.80
2019,01,28,06,54,2.80
2019,01,28,06,55,2.80
2019,01,28,06,56,2.80
2019,01,28,06,57,2.80
2019,01,28,06,58,2.80
2019,01,28,06,59,2.80
2019,01,28,07,00,2.80
2019,01,28,07,01,2.80
2019,01,28,07,02,2.80
2019,01,28,07,03,2.80
2019,01,28,07,04,2.70
2019,01,28,07,05,2.70
2019,01,28,07,06,2.70
2019,01,28,07,07,2.70
2019,01,28,07,08,2.70
2019,01,28,07,09,2.70
2019,01,28,07,10,2.70
2019,01,28,07,11,2.70
2019,01,28,07,12,2.70
2019,01,28,07,13,2.70
2019,01,28,07,14,2.70
2019,01,28,07,15,2.70
2019,01,28,07,16,2.70
2019,01,28,07,17,2.70
2019,01,28,07,18,2.70
2019,01,28,07,19,2.70
2019,01,28,07,20,2.70
2019,01,28,07,21,2.70
2019,01,28,07,22,2.70
2019,01,28,07,23,2.70
2019,01,28,07,24,2.70
2019,01,28,07,25,2.70
2019,01,28,07,26,2.70
2019,01,28,07,27,2.70
2019,01,28,07,28,2.70
2019,01,28,07,29,2.70
2019,01,28,07,30,2.70
2019,01,28,07,31,2.70
2019,01,28,07,32,2.70
2019,01,28,07,33,2.70
2019,01,28,07,34,2.70
2019,01,28,07,35,2.70
2019,01,28,07,36,2.70
2019,01,28,07,37,2.70
2019,01,28,07,38,2.70
2019,01,28,07,39,2.70
2019,01,28,07,40,2.70
2019,01,28,07,41,2.70
2019,01,28,07,42,2.70
2019,01,28,07,43,2.70
2019,01,28,07,44,2.70
2019,01,28,07,45,2.70
2019,01,28,07,46,2.70
2019,01,28,07,47,2.70
2019,01,28,07,48,2.70
2019,01,28,07,49,2.70
2019,01,28,07,50,2.70
2019,01,28,07,51,2.70
2019,01,28,07,52,2.70
2019,01,28,07,53,2.60
2019,01,28,07,54,2.60
2019,01,28,07,55,2.60
2019,01,28,07,56,2.60
2019,01,28,07,57,2.60
2019,01,28,07,58,2.60
2019,01,28,07,59,2.60
2019,01,28,08,00,2.60
2019,01,28,08,01,2.60
2019,01,28,08,02,2.60
2019,01,28,08,03,2.60
2019,01,28,08,04,2.50
2019,01,28,08,05,2.50
2019,01,28,08,06,2.50
2019,01,28,08,07,2.50
2019,01,28,08,08,2.50
2019,01,28,08,09,2.50
2019,01,28,08,10,2.50
2019,01,28,08,11,2.40
2019,01,28,08,12,2.50
2019,01,28,08,13,2.50
2019,01,28,08,14,2.40
2019,01,28,08,15,2.40
2019,01,28,08,16,2.40
2019,01,28,08,17,2.40
2019,01,28,08,18,2.40
2019,01,28,08,19,2.40
2019,01,28,08,20,2.40
2019,01,28,08,21,2.40
2019,01,28,08,22,2.40
2019,01,28,08,23,2.40
2019,01,28,08,24,2.40
2019,01,28,08,25,2.40
2019,01,28,08,26,2.40
2019,01,28,08,27,2.40
2019,01,28,08,28,2.40
2019,01,28,08,29,2.40
2019,01,28,08,30,2.40
2019,01,28,08,31,2.40
2019,01,28,08,32,2.30
2019,01,28,08,33,2.40
2019,01,28,08,34,2.30
2019,01,28,08,35,2.30
2019,01,28,08,36,2.30
2019,01,28,08,37,2.30
2019,01,28,08,38,2.30
2019,01,28,08,39,2.30
2019,01,28,08,40,2.30
2019,01,28,08,41,2.30
2019,01,28,08,42,2.30
2019,01,28,08,43,2.30
2019,01,28,08,44,2.40
2019,01,28,08,45,2.40
2019,01,28,08,46,2.40
2019,01,28,08,47,2.40
2019,01,28,08,48,2.40
2019,01,28,08,49,2.30
2019,01,28,08,50,2.30
2019,01,28,08,51,2.40
2019,01,28,08,52,2.40
2019,01,28,08,53,2.30
2019,01,28,08,54,2.40
2019,01,28,08,55,2.40
2019,01,28,08,56,2.40
2019,01,28,08,57,2.40
2019,01,28,08,58,2.40
2019,01,28,08,59,2.40
2019,01,28,09,00,2.40
2019,01,28,09,01,2.40
2019,01,28,09,02,2.40
2019,01,28,09,03,2.40
2019,01,28,09,04,2.40
2019,01,28,09,05,2.40
2019,01,28,09,06,2.40
2019,01,28,09,07,2.40
2019,01,28,09,08,2.40
2019,01,28,09,09,2.40
2019,01,28,09,10,2.40
2019,01,28,09,11,2.40
2019,01,28,09,12,2.40
2019,01,28,09,13,2.40
2019,01,28,09,14,2.50
2019,01,28,09,15,2.50
2019,01,28,09,16,2.50
2019,01,28,09,17,2.50
2019,01,28,09,18,2.50
2019,01,28,09,19,2.50
2019,01,28,09,20,2.50
2019,01,28,09,21,2.50
2019,01,28,09,22,2.50
2019,01,28,09,23,2.50
2019,01,28,09,24,2.40
2019,01,28,09,25,2.40
2019,01,28,09,26,2.40
2019,01,28,09,27,2.40
2019,01,28,09,28,2.40
2019,01,28,09,29,2.40
2019,01,28,09,30,2.40
2019,01,28,09,31,2.40
2019,01,28,09,32,2.50
2019,01,28,09,33,2.50
2019,01,28,09,34,2.50
2019,01,28,09,35,2.50
2019,01,28,09,36,2.50
2019,01,28,09,37,2.50
2019,01,28,09,38,2.60
2019,01,28,09,39,2.60
2019,01,28,09,40,2.60
2019,01,28,09,41,2.60
2019,01,28,09,42,2.60
2019,01,28,09,43,2.60
2019,01,28,09,44,2.70
2019,01,28,09,45,2.70
2019,01,28,09,46,2.60
2019,01,28,09,47,2.70
2019,01,28,09,48,2.60
2019,01,28,09,49,2.60
2019,01,28,09,50,2.60
2019,01,28,09,51,2.60
2019,01,28,09,52,2.60
2019,01,28,09,53,2.60
2019,01,28,09,54,2.70
2019,01,28,09,55,2.70
2019,01,28,09,56,2.70
2019,01,28,09,57,2.70
2019,01,28,09,58,2.70
2019,01,28,09,59,2.60
2019,01,28,10,00,2.60
2019,01,28,10,01,2.60
2019,01,28,10,02,2.60
2019,01,28,10,03,2.60
2019,01,28,10,04,2.60
2019,01,28,10,05,2.60
2019,01,28,10,06,2.60
2019,01,28,10,07,2.60
2019,01,28,10,08,2.60
2019,01,28,10,09,2.60
2019,01,28,10,10,2.60
2019,01,28,10,11,2.60
2019,01,28,10,12,2.60
2019,01,28,10,13,2.60
2019,01,28,10,14,2.60
2019,01,28,10,15,2.60
2019,01,28,10,16,2.60
2019,01,28,10,17,2.60
2019,01,28,10,18,2.60
2019,01,28,10,19,2.60
2019,01,28,10,20,2.60
2019,01,28,10,21,2.60
2019,01,28,10,22,2.70
2019,01,28,10,23,2.70
2019,01,28,10,24,2.70
2019,01,28,10,25,2.70
2019,01,28,10,26,2.70
2019,01,28,10,27,2.70
2019,01,28,10,28,2.80
2019,01,28,10,29,2.80
2019,01,28,10,30,2.80
2019,01,28,10,31,2.80
2019,01,28,10,32,2.80
2019,01,28,10,33,2.80
2019,01,28,10,34,2.80
2019,01,28,10,35,2.90
2019,01,28,10,36,2.90
2019,01,28,10,37,2.90
2019,01,28,10,38,2.90
2019,01,28,10,39,3.00
2019,01,28,10,40,3.10
2019,01,28,10,41,3.10
2019,01,28,10,42,3.10
2019,01,28,10,43,3.20
2019,01,28,10,44,3.20
2019,01,28,10,45,3.20
2019,01,28,10,46,3.20
2019,01,28,10,47,3.20
2019,01,28,10,48,3.20
2019,01,28,10,49,3.20
2019,01,28,10,50,3.30
2019,01,28,10,51,3.30
2019,01,28,10,52,3.30
2019,01,28,10,53,3.30
2019,01,28,10,54,3.30
2019,01,28,10,55,3.20
2019,01,28,10,56,3.30
2019,01,28,10,57,3.30
2019,01,28,10,58,3.20
2019,01,28,10,59,3.20
2019,01,28,11,00,3.20
2019,01,28,11,01,3.20
2019,01,28,11,02,3.20
2019,01,28,11,03,3.20
2019,01,28,11,04,3.30
2019,01,28,11,05,3.30
2019,01,28,11,06,3.30
2019,01,28,11,07,3.30
2019,01,28,11,08,3.30
2019,01,28,11,09,3.30
2019,01,28,11,10,3.30
2019,01,28,11,11,3.30
2019,01,28,11,12,3.30
2019,01,28,11,13,3.30
2019,01,28,11,14,3.30
2019,01,28,11,15,3.30
2019,01,28,11,16,3.30
2019,01,28,11,17,3.30
2019,01,28,11,18,3.30
2019,01,28,11,20,3.30
2019,01,28,11,21,3.40
2019,01,28,11,22,3.40
2019,01,28,11,23,3.40
2019,01,28,11,25,3.40
2019,01,28,11,26,3.40
2019,01,28,11,27,3.40
2019,01,28,11,28,3.40
2019,01,28,11,29,3.40
2019,01,28,11,31,3.60
2019,01,28,11,32,3.60
2019,01,28,11,33,3.60
2019,01,28,11,34,3.70
2019,01,28,11,35,3.70
2019,01,28,11,36,3.70
2019,01,28,11,37,3.70
2019,01,28,11,38,3.70
2019,01,28,11,39,3.80
2019,01,28,11,40,3.80
2019,01,28,11,41,3.80
2019,01,28,11,42,3.70
2019,01,28,11,43,3.70
2019,01,28,11,44,3.70
2019,01,28,11,45,3.70
2019,01,28,11,46,3.70
2019,01,28,11,47,3.70
2019,01,28,11,48,3.70
2019,01,28,11,49,3.70
2019,01,28,11,50,3.70
2019,01,28,11,51,3.70
2019,01,28,11,52,3.80
2019,01,28,11,54,3.80
2019,01,28,11,55,3.80
2019,01,28,11,56,3.80
2019,01,28,11,57,3.90
2019,01,28,11,58,3.90
2019,01,28,11,59,3.90
2019,01,28,12,00,3.90
2019,01,28,12,02,3.90
2019,01,28,12,03,4.00
2019,01,28,12,04,4.00
2019,01,28,12,05,4.00
2019,01,28,12,06,4.10
2019,01,28,12,07,4.10
2019,01,28,12,08,4.10
2019,01,28,12,09,4.10
2019,01,28,12,10,4.20
2019,01,28,12,11,4.20
2019,01,28,12,12,4.20
2019,01,28,12,13,4.20
2019,01,28,12,14,4.30
2019,01,28,12,15,4.30
2019,01,28,12,17,4.30
2019,01,28,12,18,4.40
2019,01,28,12,19,4.40
2019,01,28,12,20,4.30
2019,01,28,12,22,4.40
2019,01,28,12,23,4.40
2019,01,28,12,24,4.40
2019,01,28,12,25,4.40
2019,01,28,12,26,4.30
2019,01,28,12,27,4.40
2019,01,28,12,28,4.30
2019,01,28,12,29,4.30
2019,01,28,12,30,4.30
2019,01,28,12,31,4.30
2019,01,28,12,32,4.30
2019,01,28,12,33,4.30
2019,01,28,12,35,4.30
2019,01,28,12,36,4.30
2019,01,28,12,37,4.30
2019,01,28,12,38,4.30
2019,01,28,12,39,4.30
2019,01,28,12,40,4.30
2019,01,28,12,41,4.30
2019,01,28,12,42,4.30
2019,01,28,12,43,4.30
2019,01,28,12,45,4.30
2019,01,28,12,46,4.30
2019,01,28,12,47,4.30
2019,01,28,12,48,4.30
2019,01,28,12,49,4.40
2019,01,28,12,50,4.40
2019,01,28,12,51,4.40
2019,01,28,12,52,4.50
2019,01,28,12,53,4.60
2019,01,28,12,54,4.60
2019,01,28,12,55,4.70
2019,01,28,12,56,4.70
2019,01,28,12,57,4.70
2019,01,28,12,58,4.70
2019,01,28,12,59,4.70
2019,01,28,13,00,4.80
2019,01,28,13,01,4.80
2019,01,28,13,02,4.80
2019,01,28,13,03,4.80
2019,01,28,13,04,4.90
2019,01,28,13,05,4.90
2019,01,28,13,06,5.00
2019,01,28,13,07,5.00
2019,01,28,13,08,5.00
2019,01,28,13,09,5.10
2019,01,28,13,10,5.00
2019,01,28,13,11,5.00
2019,01,28,13,12,5.00
2019,01,28,13,14,5.00
2019,01,28,13,15,5.10
2019,01,28,13,16,5.10
2019,01,28,13,17,5.10
2019,01,28,13,18,5.20
2019,01,28,13,19,5.20
2019,01,28,13,20,5.20
2019,01,28,13,22,5.30
2019,01,28,13,23,5.30
2019,01,28,13,24,5.30
2019,01,28,13,25,5.20
2019,01,28,13,26,5.30
2019,01,28,13,28,5.30
2019,01,28,13,29,5.30
2019,01,28,13,30,5.30
2019,01,28,13,31,5.30
2019,01,28,13,32,5.30
2019,01,28,13,33,5.30
2019,01,28,13,34,5.40
2019,01,28,13,35,5.40
2019,01,28,13,36,5.40
2019,01,28,13,37,5.50
2019,01,28,13,38,5.60
2019,01,28,13,39,5.60
2019,01,28,13,40,5.60
2019,01,28,13,41,5.60
2019,01,28,13,42,5.60
2019,01,28,13,43,5.60
2019,01,28,13,44,5.70
2019,01,28,13,45,5.70
2019,01,28,13,46,5.70
2019,01,28,13,47,5.70
2019,01,28,13,49,5.70
2019,01,28,13,50,5.70
2019,01,28,13,51,5.70
2019,01,28,13,53,5.80
2019,01,28,13,54,5.80
2019,01,28,13,55,5.80
2019,01,28,13,56,5.70
2019,01,28,13,57,5.70
2019,01,28,13,59,5.70
2019,01,28,14,00,5.80
2019,01,28,14,01,5.80
2019,01,28,14,02,5.80
2019,01,28,14,03,5.80
2019,01,28,14,04,5.70
2019,01,28,14,05,5.80
2019,01,28,14,06,5.70
2019,01,28,14,07,5.80
2019,01,28,14,08,5.70
2019,01,28,14,09,5.70
2019,01,28,14,10,5.70
2019,01,28,14,11,5.70
2019,01,28,14,12,5.80
2019,01,28,14,13,5.80
2019,01,28,14,14,5.80
2019,01,28,14,15,5.90
2019,01,28,14,16,5.90
2019,01,28,14,17,6.00
2019,01,28,14,18,6.00
2019,01,28,14,19,6.10
2019,01,28,14,20,6.10
2019,01,28,14,21,6.10
2019,01,28,14,22,6.10
2019,01,28,14,23,6.10
2019,01,28,14,24,6.10
2019,01,28,14,25,6.20
2019,01,28,14,26,6.20
2019,01,28,14,27,6.20
2019,01,28,14,28,6.20
2019,01,28,14,29,6.20
2019,01,28,14,30,6.20
2019,01,28,14,31,6.30
2019,01,28,14,32,6.30
2019,01,28,14,33,6.30
2019,01,28,14,34,6.30
2019,01,28,14,35,6.40
2019,01,28,14,36,6.40
2019,01,28,14,37,6.50
2019,01,28,14,38,6.50
2019,01,28,14,39,6.50
2019,01,28,14,40,6.50
2019,01,28,14,41,6.50
2019,01,28,14,42,6.60
2019,01,28,14,43,6.60
2019,01,28,14,44,6.60
2019,01,28,14,45,6.60
2019,01,28,14,46,6.70
2019,01,28,14,47,6.70
2019,01,28,14,49,6.70
2019,01,28,14,50,6.70
2019,01,28,14,51,6.70
2019,01,28,14,52,6.70
2019,01,28,14,53,6.70
2019,01,28,14,54,6.70
2019,01,28,14,55,6.80
2019,01,28,14,56,6.80
2019,01,28,14,57,6.80
2019,01,28,14,59,6.70
2019,01,28,15,00,6.70
2019,01,28,15,01,6.70
2019,01,28,15,03,6.60
2019,01,28,15,05,6.60
2019,01,28,15,06,6.60
2019,01,28,15,07,6.60
2019,01,28,15,08,6.50
2019,01,28,15,09,6.50
2019,01,28,15,10,6.50
2019,01,28,15,11,6.50
2019,01,28,15,12,6.50
2019,01,28,15,13,6.40
2019,01,28,15,14,6.40
2019,01,28,15,15,6.40
2019,01,28,15,16,6.40
2019,01,28,15,17,6.40
2019,01,28,15,18,6.40
2019,01,28,15,19,6.40
2019,01,28,15,20,6.40
2019,01,28,15,21,6.40
2019,01,28,15,22,6.40
2019,01,28,15,23,6.40
2019,01,28,15,24,6.40
2019,01,28,15,25,6.40
2019,01,28,15,26,6.40
2019,01,28,15,27,6.40
2019,01,28,15,28,6.40
2019,01,28,15,29,6.40
2019,01,28,15,30,6.40
2019,01,28,15,31,6.40
2019,01,28,15,32,6.40
2019,01,28,15,33,6.40
2019,01,28,15,34,6.40
2019,01,28,15,36,6.40
2019,01,28,15,38,6.40
2019,01,28,15,40,6.30
2019,01,28,15,41,6.30
2019,01,28,15,42,6.30
2019,01,28,15,43,6.30
2019,01,28,15,44,6.30
2019,01,28,15,45,6.30
2019,01,28,15,46,6.30
2019,01,28,15,47,6.30
2019,01,28,15,48,6.30
2019,01,28,15,49,6.30
2019,01,28,15,50,6.30
2019,01,28,15,51,6.30
2019,01,28,15,52,6.30
2019,01,28,15,53,6.30
2019,01,28,15,54,6.30
2019,01,28,15,55,6.30
2019,01,28,15,56,6.30
2019,01,28,15,57,6.30
2019,01,28,15,58,6.30
2019,01,28,15,59,6.30
2019,01,28,16,00,6.30
2019,01,28,16,01,6.30
2019,01,28,16,02,6.30
2019,01,28,16,03,6.30
2019,01,28,16,04,6.30
2019,01,28,16,05,6.30
2019,01,28,16,06,6.30
2019,01,28,16,07,6.30
2019,01,28,16,08,6.30
2019,01,28,16,09,6.30
2019,01,28,16,10,6.30
2019,01,28,16,11,6.30
2019,01,28,16,12,6.30
2019,01,28,16,13,6.30
2019,01,28,16,14,6.30
2019,01,28,16,15,6.30
2019,01,28,16,16,6.30
2019,01,28,16,17,6.30
2019,01,28,16,18,6.20
2019,01,28,16,20,6.20
2019,01,28,16,21,6.20
2019,01,28,16,22,6.20
2019,01,28,16,23,6.20
2019,01,28,16,24,6.30
2019,01,28,16,25,6.30
2019,01,28,16,26,6.30
2019,01,28,16,27,6.30
2019,01,28,16,28,6.30
2019,01,28,16,29,6.20
2019,01,28,16,30,6.20
2019,01,28,16,31,6.20
2019,01,28,16,32,6.20
2019,01,28,16,33,6.20
2019,01,28,16,34,6.20
2019,01,28,16,35,6.20
2019,01,28,16,36,6.20
2019,01,28,16,37,6.20
2019,01,28,16,38,6.20
2019,01,28,16,39,6.10
2019,01,28,16,40,6.10
2019,01,28,16,41,6.10
2019,01,28,16,42,6.10
2019,01,28,16,43,6.00
2019,01,28,16,44,5.90
2019,01,28,16,45,5.90
2019,01,28,16,46,5.90
2019,01,28,16,47,5.80
2019,01,28,16,48,5.80
2019,01,28,16,49,5.80
2019,01,28,16,50,5.80
2019,01,28,16,51,5.70
2019,01,28,16,52,5.70
2019,01,28,16,53,5.70
2019,01,28,16,54,5.70
2019,01,28,16,55,5.70
2019,01,28,16,56,5.60
2019,01,28,16,57,5.60
2019,01,28,16,58,5.60
2019,01,28,16,59,5.60
2019,01,28,17,00,5.50
2019,01,28,17,01,5.50
2019,01,28,17,02,5.50
2019,01,28,17,03,5.40
2019,01,28,17,04,5.40
2019,01,28,17,05,5.40
2019,01,28,17,06,5.40
2019,01,28,17,07,5.40
2019,01,28,17,08,5.40
2019,01,28,17,09,5.30
2019,01,28,17,11,5.30
2019,01,28,17,12,5.30
2019,01,28,17,13,5.30
2019,01,28,17,14,5.30
2019,01,28,17,15,5.20
2019,01,28,17,16,5.20
2019,01,28,17,17,5.20
2019,01,28,17,18,5.20
2019,01,28,17,19,5.20
2019,01,28,17,20,5.20
2019,01,28,17,21,5.10
2019,01,28,17,22,5.10
2019,01,28,17,23,5.10
2019,01,28,17,24,5.10
2019,01,28,17,25,5.00
2019,01,28,17,26,5.00
2019,01,28,17,27,4.90
2019,01,28,17,28,4.90
2019,01,28,17,29,4.90
2019,01,28,17,30,4.90
2019,01,28,17,31,4.80
2019,01,28,17,32,4.80
2019,01,28,17,33,4.80
2019,01,28,17,34,4.80
2019,01,28,17,35,4.70
2019,01,28,17,36,4.70
2019,01,28,17,37,4.70
2019,01,28,17,38,4.70
2019,01,28,17,39,4.70
2019,01,28,17,40,4.70
2019,01,28,17,41,4.60
2019,01,28,17,42,4.60
2019,01,28,17,43,4.70
2019,01,28,17,44,4.60
2019,01,28,17,45,4.60
2019,01,28,17,46,4.60
2019,01,28,17,47,4.60
2019,01,28,17,48,4.60
2019,01,28,17,49,4.60
2019,01,28,17,50,4.60
2019,01,28,17,51,4.60
2019,01,28,17,52,4.60
2019,01,28,17,53,4.60
2019,01,28,17,54,4.60
2019,01,28,17,55,4.50
2019,01,28,17,56,4.50
2019,01,28,17,57,4.40
2019,01,28,17,58,4.40
2019,01,28,17,59,4.40
2019,01,28,18,00,4.40
2019,01,28,18,01,4.40
2019,01,28,18,02,4.30
2019,01,28,18,03,4.30
2019,01,28,18,04,4.30
2019,01,28,18,05,4.30
2019,01,28,18,06,4.20
2019,01,28,18,07,4.20
2019,01,28,18,08,4.20
2019,01,28,18,09,4.20
2019,01,28,18,10,4.20
2019,01,28,18,11,4.20
2019,01,28,18,12,4.10
2019,01,28,18,13,4.10
2019,01,28,18,14,4.10
2019,01,28,18,15,4.10
2019,01,28,18,16,4.00
2019,01,28,18,17,4.00
2019,01,28,18,18,4.00
2019,01,28,18,19,3.90
2019,01,28,18,20,3.90
2019,01,28,18,21,3.90
2019,01,28,18,22,3.90
2019,01,28,18,23,3.90
2019,01,28,18,24,3.90
2019,01,28,18,26,3.80
2019,01,28,18,27,3.80
2019,01,28,18,28,3.80
2019,01,28,18,29,3.80
2019,01,28,18,30,3.80
2019,01,28,18,31,3.80
2019,01,28,18,32,3.80
2019,01,28,18,33,3.80
2019,01,28,18,34,3.70
2019,01,28,18,35,3.70
2019,01,28,18,36,3.70
2019,01,28,18,37,3.70
2019,01,28,18,38,3.70